Air Quality Table

TIMESTAMP NO2 SO2 O3 PM10 PM2.5 TEMP HUM AIRPRES WS WD NO
2022-01-21 01:00 26.97 µg/m3 1.57 µg/m3 59.35 µg/m3 25.39 µg/m3 3.35 µg/m3 12.09 °C 75.16 % 1,017.28 mbar 1.48 m/s 284.73 Deg 2.14 µg/m3
2022-01-20 17:00 17.07 µg/m3 1.35 µg/m3 70.27 µg/m3 17.56 µg/m3 8.22 µg/m3 14.23 °C 70.66 % 1,018.76 mbar 1.92 m/s 273.02 Deg 3.11 µg/m3
2022-01-20 09:00 26.52 µg/m3 1.48 µg/m3 58.96 µg/m3 9.42 µg/m3 7.37 µg/m3 12.02 °C 87.6 % 1,020.91 mbar 1.58 m/s 216.09 Deg 4.4 µg/m3
2022-01-20 01:00 10.8 µg/m3 1.34 µg/m3 69.89 µg/m3 12.66 µg/m3 4.95 µg/m3 12.34 °C 87.1 % 1,023.00 mbar 1.62 m/s 191.23 Deg 0.3 µg/m3
2022-01-19 17:00 4 µg/m3 1.48 µg/m3 80.73 µg/m3 16.09 µg/m3 12.62 µg/m3 14.13 °C 69.33 % 1,023.83 mbar 2.91 m/s 153.73 Deg 0.6 µg/m3
2022-01-19 09:00 13.86 µg/m3 1.54 µg/m3 58.27 µg/m3 17.73 µg/m3 8.31 µg/m3 11.85 °C 78.86 % 1,024.02 mbar 1.5 m/s 230.85 Deg 1.13 µg/m3
2022-01-19 01:00 43.25 µg/m3 1.72 µg/m3 37.79 µg/m3 36.32 µg/m3 11.71 µg/m3 11.62 °C 77.77 % 1,024.33 mbar 1.63 m/s 303.12 Deg 6.04 µg/m3
2022-01-18 17:00 18.1 µg/m3 1.48 µg/m3 72.95 µg/m3 26.28 µg/m3 5.83 µg/m3 14.05 °C 66.68 % 1,022.70 mbar 3.08 m/s 207.5 Deg 5.83 µg/m3
2022-01-18 09:00 32.09 µg/m3 1.6 µg/m3 43.9 µg/m3 17.99 µg/m3 8.84 µg/m3 11.1 °C 85.64 % 1,020.67 mbar 1.76 m/s 314.33 Deg 7.89 µg/m3
2022-01-18 01:00 16.26 µg/m3 1.43 µg/m3 67.5 µg/m3 23.38 µg/m3 0.45 µg/m3 12.49 °C 82.07 % 1,019.61 mbar 2 m/s 320.42 Deg 1.2 µg/m3
2022-01-17 17:00 22.94 µg/m3 1.59 µg/m3 67.97 µg/m3 28.24 µg/m3 0 µg/m3 14.34 °C 73.15 % 1,019.42 mbar 3.01 m/s 316.7 Deg 7.3 µg/m3
2022-01-17 09:00 32.26 µg/m3 1.61 µg/m3 40.45 µg/m3 14.36 µg/m3 µg/m3 10.9 °C 93.52 % 1,020.26 mbar 1.44 m/s 310.82 Deg 10.14 µg/m3
2022-01-17 01:00 36.06 µg/m3 1.46 µg/m3 36.29 µg/m3 37.33 µg/m3 µg/m3 11.71 °C 93.08 % 1,020.20 mbar 1.41 m/s 300.92 Deg 4.02 µg/m3
2022-01-16 17:00 13.22 µg/m3 1.43 µg/m3 70.72 µg/m3 20.17 µg/m3 µg/m3 14.97 °C 77.42 % 1,018.70 mbar 1.46 m/s 190.07 Deg 2.13 µg/m3
2022-01-16 09:00 16.91 µg/m3 1.58 µg/m3 58.61 µg/m3 15.57 µg/m3 µg/m3 11.61 °C 82.67 % 1,017.15 mbar 1.69 m/s 306.53 Deg 2.28 µg/m3
2022-01-16 01:00 47.26 µg/m3 1.69 µg/m3 33.89 µg/m3 50.69 µg/m3 µg/m3 10.91 °C 81.4 % 1,015.97 mbar 1.43 m/s 313.78 Deg 5.46 µg/m3
2022-01-15 17:00 19.98 µg/m3 1.63 µg/m3 71.75 µg/m3 23.87 µg/m3 µg/m3 13.28 °C 66.9 % 1,015.60 mbar 2.47 m/s 183.05 Deg 6.3 µg/m3
2022-01-15 09:00 33.49 µg/m3 1.81 µg/m3 41.79 µg/m3 14.41 µg/m3 µg/m3 8.81 °C 77.46 % 1,017.24 mbar 1.67 m/s 298.85 Deg 10.31 µg/m3
2022-01-15 01:00 33.76 µg/m3 1.79 µg/m3 48.81 µg/m3 33.21 µg/m3 µg/m3 9.95 °C 68.03 % 1,019.72 mbar 1.67 m/s 198.79 Deg 3.39 µg/m3
2022-01-14 17:00 11.21 µg/m3 1.57 µg/m3 76.43 µg/m3 24.25 µg/m3 µg/m3 12.52 °C 63.94 % 1,020.35 mbar 3.39 m/s 53.84 Deg 2.18 µg/m3
2022-01-14 09:00 5.96 µg/m3 1.58 µg/m3 80.11 µg/m3 20.99 µg/m3 µg/m3 11.66 °C 66.02 % 1,020.66 mbar 4.67 m/s 68.28 Deg 0.72 µg/m3
2022-01-14 01:00 3.38 µg/m3 1.44 µg/m3 79.71 µg/m3 22.34 µg/m3 µg/m3 12.04 °C 69.81 % 1,020.46 mbar 4.23 m/s 110.56 Deg 0.46 µg/m3
2022-01-13 17:00 4.99 µg/m3 1.31 µg/m3 69.68 µg/m3 21.66 µg/m3 µg/m3 12.68 °C 77.96 % 1,017.98 mbar 4.68 m/s 203.28 Deg 1.21 µg/m3
2022-01-13 09:00 11.12 µg/m3 0.31 µg/m3 54.1 µg/m3 8.83 µg/m3 µg/m3 11.01 °C 92.6 % 1,015.58 mbar 2.58 m/s 284.6 Deg 2.06 µg/m3
2022-01-13 01:00 12.35 µg/m3 1.2 µg/m3 56.21 µg/m3 17.63 µg/m3 µg/m3 11.06 °C 91.25 % 1,013.58 mbar 2.6 m/s 263.89 Deg 0.75 µg/m3
2022-01-12 17:00 15.53 µg/m3 1.55 µg/m3 52.71 µg/m3 35.48 µg/m3 µg/m3 13.71 °C 76.54 % 1,010.21 mbar 2.47 m/s 116.72 Deg 12.25 µg/m3
2022-01-12 09:00 34.72 µg/m3 1.89 µg/m3 23.08 µg/m3 21.36 µg/m3 µg/m3 10.98 °C 84.11 % 1,007.40 mbar 1.65 m/s 313.29 Deg 31.43 µg/m3
2022-01-12 01:00 13.4 µg/m3 1.42 µg/m3 54.78 µg/m3 18.54 µg/m3 µg/m3 13.23 °C 69.29 % 1,004.45 mbar 3.45 m/s 333.21 Deg 1.01 µg/m3
2022-01-11 17:00 11.97 µg/m3 1.54 µg/m3 63.41 µg/m3 18.42 µg/m3 µg/m3 13.65 °C 67.32 % 1,000.37 mbar 4.93 m/s 345.52 Deg 3.75 µg/m3
2022-01-11 09:00 11.39 µg/m3 1.49 µg/m3 64.73 µg/m3 13.11 µg/m3 µg/m3 11.25 °C 70.17 % 996.79 mbar 3.43 m/s 335.08 Deg 1.58 µg/m3
2022-01-11 01:00 8.15 µg/m3 1.38 µg/m3 72.63 µg/m3 17.25 µg/m3 µg/m3 11.41 °C 67.75 % 994.26 mbar 4.25 m/s 332.33 Deg 0.63 µg/m3
2022-01-10 17:00 12.49 µg/m3 1.26 µg/m3 70.78 µg/m3 13.8 µg/m3 µg/m3 12.01 °C 65.22 % 991.68 mbar 5.36 m/s 329.5 Deg 3.04 µg/m3
2022-01-10 09:00 14.78 µg/m3 1.17 µg/m3 67.79 µg/m3 8.57 µg/m3 µg/m3 9.7 °C 89.29 % 994.79 mbar 2.95 m/s 312.85 Deg 2.08 µg/m3
2022-01-10 01:00 5.28 µg/m3 1.3 µg/m3 77.74 µg/m3 19.94 µg/m3 µg/m3 12.49 °C 78.5 % 999.92 mbar 4.54 m/s 298.37 Deg 0.73 µg/m3
2022-01-09 17:00 7.84 µg/m3 1.4 µg/m3 71.85 µg/m3 17.94 µg/m3 µg/m3 14.11 °C 69.69 % 1,002.83 mbar 4.5 m/s 321.52 Deg 1.77 µg/m3
2022-01-09 09:00 7.86 µg/m3 1.44 µg/m3 70.49 µg/m3 9.74 µg/m3 µg/m3 12.08 °C 64.19 % 1,003.89 mbar 3.89 m/s 332.66 Deg 0.66 µg/m3
2022-01-09 01:00 11.11 µg/m3 1.32 µg/m3 66.1 µg/m3 15.18 µg/m3 µg/m3 12.5 °C 62.83 % 1,003.45 mbar 5.18 m/s 347.07 Deg 1.12 µg/m3
2022-01-08 17:00 10.65 µg/m3 1.22 µg/m3 62.79 µg/m3 16.89 µg/m3 µg/m3 13.62 °C 69.75 % 1,002.73 mbar 4.87 m/s 340.2 Deg 2.41 µg/m3
2022-01-08 09:00 9.82 µg/m3 1.18 µg/m3 0 µg/m3 17.7 µg/m3 µg/m3 13.15 °C 81.79 % 1,003.14 mbar 4.14 m/s 337.81 Deg 0.9 µg/m3
2022-01-08 01:00 13.74 µg/m3 0.98 µg/m3 0 µg/m3 3.56 µg/m3 µg/m3 12.95 °C 83.42 % 1,003.35 mbar 3.93 m/s 259.28 Deg 1.03 µg/m3
2022-01-07 17:00 15.07 µg/m3 1.26 µg/m3 25.43 µg/m3 4.39 µg/m3 44.62 µg/m3 12.83 °C 91.94 % 1,002.47 mbar 3.98 m/s 305.75 Deg 5.69 µg/m3
2022-01-07 09:00 13.16 µg/m3 1.1 µg/m3 60.14 µg/m3 12.51 µg/m3 11.48 µg/m3 13.12 °C 89.45 % 1,002.85 mbar 3.18 m/s 322.25 Deg 1.12 µg/m3
2022-01-07 01:00 9.39 µg/m3 1.03 µg/m3 69.04 µg/m3 23.16 µg/m3 10.02 µg/m3 13.95 °C 87 % 1,003.06 mbar 3.73 m/s 131.73 Deg 0.95 µg/m3
2022-01-06 17:00 12.99 µg/m3 1.08 µg/m3 67.4 µg/m3 40.1 µg/m3 14.03 µg/m3 15.07 °C 85.86 % 1,002.81 mbar 2.2 m/s 149.51 Deg 4.13 µg/m3
2022-01-06 09:00 35.48 µg/m3 1.34 µg/m3 34.72 µg/m3 23.06 µg/m3 16.48 µg/m3 12.81 °C 89.73 % 1,004.53 mbar 1.27 m/s 264.82 Deg 18.55 µg/m3
2022-01-06 01:00 15.99 µg/m3 0.98 µg/m3 59.84 µg/m3 26.87 µg/m3 13.06 µg/m3 14.31 °C 93.61 % 1,005.40 mbar 2.05 m/s 283.42 Deg 0.85 µg/m3
2022-01-05 17:00 6.78 µg/m3 0.96 µg/m3 70.53 µg/m3 20.04 µg/m3 8.61 µg/m3 17.17 °C 79.37 % 1,005.57 mbar 4.32 m/s 240.94 Deg 1.72 µg/m3
2022-01-05 09:00 5.54 µg/m3 1.01 µg/m3 67.66 µg/m3 12.6 µg/m3 12.92 µg/m3 14.93 °C 91.34 % 1,007.67 mbar 2.96 m/s 229.9 Deg 0.95 µg/m3
2022-01-05 01:00 9.11 µg/m3 1.01 µg/m3 72.67 µg/m3 23.25 µg/m3 13.47 µg/m3 14.59 °C 97.97 % 1,010.63 mbar 2.11 m/s 236.87 Deg 0.81 µg/m3
2022-01-04 17:00 10.85 µg/m3 1.16 µg/m3 64.43 µg/m3 21.4 µg/m3 12.53 µg/m3 15.55 °C 85.4 % 1,013.22 mbar 3.1 m/s 265.49 Deg 2.49 µg/m3
2022-01-04 09:00 14 µg/m3 1.16 µg/m3 55.63 µg/m3 10.39 µg/m3 12.22 µg/m3 13.61 °C 88.31 % 1,014.86 mbar 2.16 m/s 300.55 Deg 2.18 µg/m3
2022-01-04 01:00 8.01 µg/m3 1.18 µg/m3 61.33 µg/m3 17.34 µg/m3 9.93 µg/m3 13.8 °C 89.65 % 1,015.72 mbar 2.35 m/s 312.66 Deg 0.96 µg/m3
2022-01-03 17:00 12.04 µg/m3 1.18 µg/m3 57.44 µg/m3 18.85 µg/m3 7.98 µg/m3 14.6 °C 83.68 % 1,016.60 mbar 3.6 m/s 311.98 Deg 3.31 µg/m3
2022-01-03 09:00 10.82 µg/m3 1.2 µg/m3 51.88 µg/m3 10.9 µg/m3 9.7 µg/m3 13.33 °C 92.87 % 1,017.64 mbar 2.02 m/s 297.61 Deg 1.51 µg/m3
2022-01-03 01:00 25.86 µg/m3 1.11 µg/m3 33.09 µg/m3 22.73 µg/m3 8.29 µg/m3 13.5 °C 97.45 % 1,019.27 mbar 0.9 m/s 285.49 Deg 1.79 µg/m3
2022-01-02 17:00 11.39 µg/m3 1.15 µg/m3 61.81 µg/m3 15.91 µg/m3 13.33 µg/m3 17.31 °C 75.24 % 1,019.35 mbar 1.6 m/s 203.87 Deg 2.42 µg/m3
2022-01-02 09:00 13.28 µg/m3 -0.15 µg/m3 38.68 µg/m3 17.58 µg/m3 14.26 µg/m3 13.25 °C 97.86 % 1,018.87 mbar 1.52 m/s 292.34 Deg 1.87 µg/m3
2022-01-02 01:00 10.93 µg/m3 1.06 µg/m3 49.22 µg/m3 24.08 µg/m3 50.83 µg/m3 14.65 °C 97.12 % 1,017.99 mbar 2.95 m/s 332.46 Deg 1.1 µg/m3
2022-01-01 17:00 9.39 µg/m3 1.14 µg/m3 58.58 µg/m3 23.78 µg/m3 21.11 µg/m3 16.5 °C 87.52 % 1,017.60 mbar 2.75 m/s 314.96 Deg 2.74 µg/m3
2022-01-01 09:00 15.98 µg/m3 1.12 µg/m3 41.12 µg/m3 17.02 µg/m3 16.32 µg/m3 12.94 °C 90.69 % 1,018.40 mbar 1.43 m/s 310.84 Deg 2.15 µg/m3
2022-01-01 01:00 35.54 µg/m3 1.4 µg/m3 40.86 µg/m3 23.95 µg/m3 13.23 µg/m3 13.93 °C 71.19 % 1,018.92 mbar 1.81 m/s 311.2 Deg 3.14 µg/m3
2021-12-31 17:00 17.21 µg/m3 1.28 µg/m3 64.42 µg/m3 25.39 µg/m3 12.85 µg/m3 16.73 °C 70.09 % 1,017.21 mbar 2.28 m/s 230.2 Deg 5.69 µg/m3
2021-12-31 09:00 27.73 µg/m3 1.23 µg/m3 38.78 µg/m3 20.92 µg/m3 17.28 µg/m3 13.54 °C 86.46 % 1,014.95 mbar 1.34 m/s 253.51 Deg 8.08 µg/m3
2021-12-31 01:00 30.82 µg/m3 0.97 µg/m3 38.16 µg/m3 33.29 µg/m3 15.53 µg/m3 14.92 °C 93.18 % 1,012.09 mbar 1.21 m/s 148.29 Deg 3.75 µg/m3
2021-12-30 17:00 14.26 µg/m3 0.94 µg/m3 56.13 µg/m3 29.85 µg/m3 15.78 µg/m3 16.62 °C 89.12 % 1,008.79 mbar 4.21 m/s 262.32 Deg 4.81 µg/m3
2021-12-30 09:00 9.45 µg/m3 0.85 µg/m3 58.55 µg/m3 32.6 µg/m3 18.3 µg/m3 15.62 °C 95.14 % 1,006.89 mbar 3.69 m/s 332.87 Deg 1.3 µg/m3
2021-12-30 01:00 6.5 µg/m3 0.9 µg/m3 69.02 µg/m3 38.65 µg/m3 19.4 µg/m3 16.1 °C 90.07 % 1,006.51 mbar 4.41 m/s 327.6 Deg 0.82 µg/m3
2021-12-29 17:00 10.78 µg/m3 0.89 µg/m3 66.57 µg/m3 35.71 µg/m3 15.08 µg/m3 16.82 °C 84.69 % 1,006.52 mbar 4.95 m/s 319.92 Deg 2.73 µg/m3
2021-12-29 09:00 7.89 µg/m3 0.95 µg/m3 64.05 µg/m3 29.7 µg/m3 20.49 µg/m3 15.51 °C 90.41 % 1,006.96 mbar 3.55 m/s 323.06 Deg 1.06 µg/m3
2021-12-29 01:00 6.87 µg/m3 0.9 µg/m3 69.03 µg/m3 37.74 µg/m3 19.26 µg/m3 15.49 °C 90.55 % 1,006.93 mbar 3.65 m/s 318.4 Deg 0.89 µg/m3
2021-12-28 17:00 8.76 µg/m3 0.9 µg/m3 76.25 µg/m3 30.3 µg/m3 13.65 µg/m3 16.95 °C 79.35 % 1,005.69 mbar 4.85 m/s 313.13 Deg 2.88 µg/m3
2021-12-28 09:00 6.87 µg/m3 0.91 µg/m3 56.57 µg/m3 22.05 µg/m3 13.98 µg/m3 15.96 °C 89.55 % 1,005.44 mbar 3.99 m/s 285.88 Deg 1.19 µg/m3
2021-12-28 01:00 10.9 µg/m3 0.88 µg/m3 60.74 µg/m3 29.03 µg/m3 10.95 µg/m3 15.67 °C 94.02 % 1,007.57 mbar 2.69 m/s 277.67 Deg 0.89 µg/m3
2021-12-27 17:00 16.85 µg/m3 0.92 µg/m3 54.65 µg/m3 28.9 µg/m3 13.38 µg/m3 17.22 °C 78.81 % 1,007.23 mbar 2.56 m/s 316.5 Deg 4.55 µg/m3
2021-12-27 09:00 24.73 µg/m3 0.92 µg/m3 39.5 µg/m3 34.19 µg/m3 14.71 µg/m3 15.65 °C 92.67 % 1,006.14 mbar 1.61 m/s 276.94 Deg 6.86 µg/m3
2021-12-27 01:00 3.34 µg/m3 0.77 µg/m3 62.11 µg/m3 31.56 µg/m3 14.36 µg/m3 16.2 °C 93.43 % 1,007.40 mbar 2.94 m/s 205.53 Deg 0.32 µg/m3
2021-12-26 17:00 7.21 µg/m3 0.93 µg/m3 61.75 µg/m3 38.91 µg/m3 12.86 µg/m3 18.24 °C 75.62 % 1,007.67 mbar 3.16 m/s 227.64 Deg 1.59 µg/m3
2021-12-26 09:00 6.44 µg/m3 0.83 µg/m3 55.37 µg/m3 35.53 µg/m3 17.97 µg/m3 16.39 °C 86.71 % 1,008.33 mbar 2.3 m/s 230.03 Deg 0.65 µg/m3
2021-12-26 01:00 2.76 µg/m3 0.8 µg/m3 63.19 µg/m3 40.32 µg/m3 18.81 µg/m3 16.06 °C 89.93 % 1,009.19 mbar 3.61 m/s 216.84 Deg 0.28 µg/m3
2021-12-25 17:00 5.5 µg/m3 0.9 µg/m3 72.95 µg/m3 28.01 µg/m3 9.71 µg/m3 17.59 °C 85.76 % 1,010.58 mbar 4.58 m/s 210.51 Deg 0.82 µg/m3
2021-12-25 09:00 2.95 µg/m3 0.91 µg/m3 72.69 µg/m3 17.89 µg/m3 12.6 µg/m3 15.55 °C 91.9 % 1,012.73 mbar 2.84 m/s 206.95 Deg 0.29 µg/m3
2021-12-25 01:00 13.93 µg/m3 1.05 µg/m3 58.11 µg/m3 14.17 µg/m3 6.58 µg/m3 14.31 °C 88.81 % 1,014.60 mbar 1.85 m/s 197.5 Deg 0.46 µg/m3
2021-12-24 17:00 6.61 µg/m3 N/A 73.18 µg/m3 18.44 µg/m3 7.95 µg/m3 15.77 °C 75.98 % 1,015.86 mbar 2.21 m/s 204.59 Deg 1.38 µg/m3
2021-12-24 09:00 31.43 µg/m3 N/A 40.75 µg/m3 12.82 µg/m3 12.92 µg/m3 13.45 °C 85.87 % 1,016.92 mbar 0.79 m/s 150.54 Deg 16.7 µg/m3
2021-12-24 01:00 4.75 µg/m3 1.08 µg/m3 74.21 µg/m3 12.74 µg/m3 6.6 µg/m3 13.95 °C 83.97 % 1,016.69 mbar 1.89 m/s 212.33 Deg 0.26 µg/m3
2021-12-23 17:00 6.78 µg/m3 1.14 µg/m3 72.96 µg/m3 15.02 µg/m3 4.92 µg/m3 14.81 °C 80.55 % 1,015.79 mbar 2.78 m/s 219.88 Deg 0.74 µg/m3
2021-12-23 09:00 5.07 µg/m3 1.1 µg/m3 72.67 µg/m3 11.6 µg/m3 12.78 µg/m3 13.97 °C 83.35 % 1,015.39 mbar 2.57 m/s 140.43 Deg 0.51 µg/m3
2021-12-23 01:00 14.4 µg/m3 1.13 µg/m3 62.22 µg/m3 18.08 µg/m3 10.16 µg/m3 14.07 °C 79.01 % 1,015.52 mbar 1.5 m/s 175.74 Deg 0.95 µg/m3
2021-12-22 17:00 27.97 µg/m3 1.39 µg/m3 54.55 µg/m3 34.29 µg/m3 13.36 µg/m3 15.18 °C 70.57 % 1,015.40 mbar 1.17 m/s 257.73 Deg 10.43 µg/m3
2021-12-22 09:00 45.7 µg/m3 1.57 µg/m3 27.29 µg/m3 23.2 µg/m3 17.43 µg/m3 12.49 °C 83.02 % 1,016.02 mbar 1.25 m/s 308.35 Deg 27.16 µg/m3
2021-12-22 01:00 60.75 µg/m3 1.59 µg/m3 17.66 µg/m3 42.1 µg/m3 17.53 µg/m3 12.91 °C 80.19 % 1,016.35 mbar 1.28 m/s 307.62 Deg 14.11 µg/m3
2021-12-21 17:00 20.83 µg/m3 1.27 µg/m3 63.03 µg/m3 21.91 µg/m3 11.81 µg/m3 15.14 °C 68.4 % 1,015.50 mbar 2.65 m/s 328.18 Deg 5.83 µg/m3

It is to be noted that the data is provisional and subject to quality assurance procedures. For validated data kindly refer your request to contact.air@era.org.mt